GW4922 Weather Reports


time (UTC)temp
C
wind
direction
speed
KPH
gust
KPH
rain 1hr
cm
rain 24hr
cm
rain mn
cm
humidity
%
barometer
mb
20260510105339 23 176 3.2 6.4 0.00 0.00 0.00 95 1011.4
20260510104835 23 174 3.2 3.2 0.00 0.00 0.00 95 1011.3
20260510104333 23 182 1.6 3.2 0.00 0.00 0.00 95 1011.3
20260510103829 23 167 1.6 4.8 0.00 0.00 0.00 95 1011.4
20260510103326 23 157 3.2 4.8 0.00 0.00 0.00 95 1011.2
20260510102821 23 164 3.2 4.8 0.00 0.00 0.00 95 1011.2
20260510102317 23 173 3.2 4.8 0.00 0.00 0.00 95 1011.4
20260510101815 23 190 3.2 4.8 0.00 0.00 0.00 95 1011.2
20260510101313 23 149 4.8 6.4 0.00 0.00 0.00 95 1011.5
20260510100808 23 167 3.2 4.8 0.00 0.00 0.00 95 1011.2
20260510100306 23 169 3.2 9.7 0.00 0.00 0.00 95 1011.2
20260510095802 23 143 6.4 9.7 0.00 0.00 0.00 95 1011.3
20260510095257 23 147 4.8 6.4 0.00 0.00 0.00 95 1011.3
20260510094756 23 171 3.2 4.8 0.00 0.00 0.00 95 1011.3
20260510094252 23 155 1.6 4.8 0.00 0.00 0.00 95 1011.4
20260510093748 23 152 6.4 9.7 0.00 0.00 0.00 95 1011.3
20260510093245 23 149 6.4 6.4 0.00 0.00 0.00 95 1011.3
20260510092741 23 152 4.8 9.7 0.00 0.00 0.00 95 1011.3
20260510092237 23 160 4.8 4.8 0.00 0.00 0.00 95 1011.2
20260510091733 23 157 3.2 4.8 0.00 0.00 0.00 95 1011.3
20260510091230 23 165 3.2 4.8 0.00 0.00 0.00 95 1011.0
20260510090726 23 145 4.8 6.4 0.00 0.00 0.00 95 1011.3
20260510090224 22 164 4.8 6.4 0.00 0.00 0.00 95 1011.1
20260510085719 22 157 3.2 6.4 0.00 0.00 0.00 95 1011.2
20260510085214 22 163 3.2 4.8 0.00 0.00 0.00 95 1011.1
20260510084710 22 160 3.2 4.8 0.00 0.00 0.00 95 1011.1
20260510084207 22 151 4.8 4.8 0.00 0.00 0.00 95 1011.2
20260510083704 22 156 3.2 3.2 0.00 0.00 0.00 94 1011.2
20260510083201 22 158 1.6 3.2 0.00 0.00 0.00 94 1011.1
20260510082656 22 158 1.6 1.6 0.00 0.00 0.00 94 1011.2
20260510082152 21 156 1.6 3.2 0.00 0.00 0.00 94 1011.1
20260510081647 21 156 3.2 3.2 0.00 0.00 0.00 94 1011.2
20260510081143 21 159 0.0 3.2 0.00 0.00 0.00 94 1011.0
20260510080642 21 165 1.6 3.2 0.00 0.00 0.00 93 1011.2
20260510080140 21 141 3.2 3.2 0.00 0.00 0.00 94 1011.0
20260510075637 22 157 0.0 0.0 0.00 0.00 0.00 93 1011.1
20260510075134 22 152 1.6 3.2 0.00 0.00 0.00 94 1011.1
20260510074631 22 155 0.0 3.2 0.00 0.00 0.00 94 1011.2
20260510074126 22 112 0.0 0.0 0.00 0.00 0.00 94 1011.0
20260510073623 22 148 0.0 1.6 0.00 0.00 0.00 94 1011.0
20260510073120 22 157 0.0 3.2 0.00 0.00 0.00 93 1011.0
20260510072616 22 92 3.2 4.8 0.00 0.00 0.00 93 1011.1
20260510072113 22 138 1.6 1.6 0.00 0.00 0.00 93 1011.0
20260510071608 22 139 3.2 6.4 0.00 0.00 0.00 93 1010.8
20260510071106 22 135 4.8 6.4 0.00 0.00 0.00 93 1010.8
20260510070603 22 159 4.8 11.3 0.00 0.00 0.00 93 1011.1
20260510070100 22 151 6.4 9.7 0.00 0.00 0.00 93 1010.8
20260510065557 22 145 8.0 14.5 0.00 0.00 0.00 93 1010.9
20260510065053 22 149 6.4 11.3 0.00 0.00 0.00 93 1010.9
20260510064549 22 147 8.0 12.9 0.00 0.00 0.00 93 1011.1
20260510064046 22 139 9.7 11.3 0.00 0.00 0.00 93 1011.1
20260510063543 22 153 6.4 11.3 0.00 0.00 0.00 92 1011.1
20260510063040 22 171 9.7 12.9 0.00 0.00 0.00 92 1011.3
20260510062536 21 163 4.8 6.4 0.00 0.00 0.00 92 1011.3
20260510062031 21 145 4.8 4.8 0.00 0.00 0.00 91 1011.5
20260510061528 21 152 3.2 4.8 0.00 0.00 0.00 91 1011.8
20260510061025 21 153 3.2 3.2 0.00 0.00 0.00 91 1011.6
20260510060521 22 136 3.2 4.8 0.00 0.00 0.00 90 1011.9
20260510060017 22 153 3.2 3.2 0.00 0.00 0.00 90 1011.8
20260510055513 22 130 3.2 3.2 0.00 0.00 0.00 90 1012.0
20260510055012 22 115 0.0 3.2 0.00 0.00 0.00 90 1012.1
20260510054507 22 64 3.2 4.8 0.00 0.00 0.00 90 1012.1
20260510054003 22 150 0.0 3.2 0.00 0.00 0.00 89 1012.1
20260510053457 22 162 0.0 0.0 0.00 0.00 0.00 89 1012.1
20260510052954 22 162 0.0 0.0 0.00 0.00 0.00 89 1012.1
20260510052450 22 162 0.0 0.0 0.00 0.00 0.00 88 1012.2
20260510051946 22 163 0.0 0.0 0.00 0.00 0.00 88 1012.2
20260510051442 22 154 0.0 0.0 0.00 0.00 0.00 88 1012.1
20260510050938 22 153 0.0 1.6 0.00 0.00 0.00 88 1012.1
20260510050436 22 147 1.6 3.2 0.00 0.00 0.00 87 1012.2
20260510045933 22 121 1.6 4.8 0.00 0.00 0.00 87 1011.8
20260510045430 23 152 1.6 4.8 0.00 0.00 0.00 87 1011.8
20260510044926 23 151 3.2 4.8 0.00 0.00 0.00 86 1011.7
20260510044424 23 126 3.2 6.4 0.00 0.00 0.00 86 1011.7
20260510043920 23 143 3.2 6.4 0.00 0.00 0.00 86 1011.9
20260510043416 23 141 1.6 6.4 0.00 0.00 0.00 85 1012.0
20260510042915 23 154 6.4 6.4 0.00 0.00 0.00 85 1012.0
20260510042410 23 147 3.2 4.8 0.00 0.00 0.00 84 1011.9
20260510041906 23 125 1.6 6.4 0.00 0.00 0.00 84 1012.0
20260510041403 23 97 1.6 3.2 0.00 0.00 0.00 84 1012.0
20260510040901 23 142 1.6 4.8 0.00 0.00 0.00 83 1011.9
20260510040358 23 125 1.6 9.7 0.00 0.00 0.00 83 1011.9
20260510035854 23 119 6.4 11.3 0.00 0.00 0.00 82 1011.9
20260510035349 23 89 3.2 6.4 0.00 0.00 0.00 81 1012.1
20260510034844 23 67 6.4 9.7 0.00 0.00 0.00 81 1012.0
20260510034343 24 120 3.2 6.4 0.00 0.00 0.00 80 1012.1
20260510033839 24 154 6.4 9.7 0.00 0.00 0.00 79 1011.8
20260510033336 24 147 6.4 12.9 0.00 0.00 0.00 80 1011.9
20260510032832 23 132 6.4 11.3 0.00 0.00 0.00 80 1011.7
20260510032329 23 54 4.8 6.4 0.00 0.00 0.00 81 1011.6
20260510031825 24 151 1.6 4.8 0.00 0.00 0.00 81 1011.4
20260510031321 24 110 0.0 3.2 0.00 0.00 0.00 81 1011.4
20260510030821 24 151 0.0 3.2 0.00 0.00 0.00 81 1011.3
20260510030317 24 160 1.6 4.8 0.00 0.00 0.00 81 1011.2
20260510025815 24 131 6.4 9.7 0.00 0.00 0.00 81 1011.1
20260510025312 25 65 4.8 6.4 0.00 0.00 0.00 81 1011.1
20260510024809 25 169 6.4 9.7 0.00 0.00 0.00 82 1010.7
20260510024306 25 94 8.0 11.3 0.00 0.00 0.00 82 1010.6
20260510023802 25 121 6.4 9.7 0.00 0.00 0.00 82 1010.4
20260510023258 25 150 6.4 9.7 0.00 0.00 0.00 82 1010.4
20260510022756 25 151 6.4 11.3 0.00 0.00 0.00 81 1010.3
20260510022255 25 147 4.8 6.4 0.00 0.00 0.00 80 1010.3
20260510021754 25 145 4.8 9.7 0.00 0.00 0.00 80 1010.4
20260510021253 25 151 8.0 14.5 0.00 0.00 0.00 79 1009.8
20260510020748 25 145 9.7 12.9 0.00 0.00 0.00 79 1009.8
20260510020248 25 133 8.0 11.3 0.00 0.00 0.00 80 1010.0
20260510015745 25 133 6.4 11.3 0.00 0.00 0.00 80 1009.8
20260510015241 25 137 8.0 11.3 0.00 0.00 0.00 80 1009.7
20260510014736 25 143 1.6 6.4 0.00 0.00 0.00 80 1009.8
20260510014234 25 143 3.2 6.4 0.00 0.00 0.00 79 1009.7
20260510013729 25 153 1.6 4.8 0.00 0.00 0.00 79 1009.5
20260510013225 25 150 3.2 6.4 0.00 0.00 0.00 79 1009.1
20260510012724 26 156 3.2 6.4 0.00 0.00 0.00 79 1009.1
20260510012220 26 151 4.8 6.4 0.00 0.00 0.00 79 1008.9
20260510011715 26 172 6.4 9.7 0.00 0.00 0.00 79 1009.1
20260510011211 26 158 4.8 11.3 0.00 0.00 0.00 79 1008.9
20260510010707 26 159 6.4 11.3 0.00 0.00 0.00 78 1009.0
20260510010204 26 145 4.8 9.7 0.00 0.00 0.00 77 1009.1
20260510005701 26 158 4.8 9.7 0.00 0.00 0.00 75 1009.0
20260510005157 27 149 4.8 9.7 0.00 0.00 0.00 74 1009.0
20260510004655 27 139 9.7 11.3 0.00 0.00 0.00 73 1009.1
20260510004153 27 132 6.4 9.7 0.00 0.00 0.00 72 1009.3
20260510003650 28 136 8.0 14.5 0.00 0.00 0.00 71 1009.1
20260510003146 28 92 3.2 4.8 0.00 0.00 0.00 71 1008.7
20260510002646 29 169 0.0 0.0 0.00 0.00 0.00 68 1008.6
20260510002143 30 179 0.0 0.0 0.00 0.00 0.00 66 1008.4
20260510001640 30 179 0.0 0.0 0.00 0.00 0.00 63 1008.4
20260510001138 30 179 0.0 0.0 0.00 0.00 0.00 63 1008.4
20260510000638 31 180 1.6 3.2 0.00 0.00 0.00 63 1008.5
20260510000137 31 184 4.8 4.8 0.00 0.00 0.00 62 1008.2
20260509235632 31 172 3.2 4.8 0.00 0.00 0.00 62 1008.2
20260509235129 31 182 4.8 4.8 0.00 0.00 0.00 61 1008.4
20260509234625 31 191 1.6 3.2 0.00 0.00 0.00 61 1008.2
20260509234123 31 182 3.2 3.2 0.00 0.00 0.00 59 1008.3
20260509233620 31 161 3.2 4.8 0.00 0.00 0.00 59 1008.2
20260509233118 31 188 3.2 6.4 0.00 0.00 0.00 59 1008.3
20260509232614 31 175 0.0 4.8 0.00 0.00 0.00 62 1008.2
20260509232111 31 162 4.8 6.4 0.00 0.00 0.00 60 1008.4
20260509231607 31 180 3.2 3.2 0.00 0.00 0.00 61 1008.4
20260509231105 31 166 3.2 4.8 0.00 0.00 0.00 60 1008.4
20260509230602 31 174 4.8 6.4 0.00 0.00 0.00 60 1008.3
20260509230059 31 162 4.8 6.4 0.00 0.00 0.00 59 1008.1
20260509225554 31 173 4.8 6.4 0.00 0.00 0.00 61 1008.2
20260509225050 31 174 3.2 6.4 0.00 0.00 0.00 59 1008.2
20260509224546 32 160 3.2 4.8 0.00 0.00 0.00 58 1008.3
20260509224043 32 158 1.6 3.2 0.00 0.00 0.00 56 1008.4
20260509223540 32 160 3.2 4.8 0.00 0.00 0.00 56 1008.2
20260509223038 32 162 3.2 4.8 0.00 0.00 0.00 57 1008.1
20260509222533 32 168 3.2 6.4 0.00 0.00 0.00 56 1008.0
20260509222029 33 186 1.6 3.2 0.00 0.00 0.00 54 1008.1
20260509221525 32 185 1.6 4.8 0.00 0.00 0.00 54 1008.1
20260509221021 32 194 0.0 0.0 0.00 0.00 0.00 55 1008.2
20260509220517 32 193 1.6 3.2 0.00 0.00 0.00 54 1008.2
20260509220014 32 190 0.0 3.2 0.00 0.00 0.00 55 1008.3
20260509215509 32 192 0.0 0.0 0.00 0.00 0.00 56 1008.0
20260509215007 32 206 1.6 3.2 0.00 0.00 0.00 58 1007.9
20260509214504 32 197 6.4 9.7 0.00 0.00 0.00 56 1008.2
20260509214001 32 187 0.0 0.0 0.00 0.00 0.00 57 1008.0
20260509213457 32 187 3.2 4.8 0.00 0.00 0.00 57 1008.2
20260509212954 33 193 3.2 4.8 0.00 0.00 0.00 59 1008.0
20260509212451 33 233 0.0 1.6 0.00 0.00 0.00 57 1007.9
20260509211947 33 206 0.0 1.6 0.00 0.00 0.00 57 1008.0
20260509211443 32 206 0.0 0.0 0.00 0.00 0.00 57 1007.8
20260509210940 32 208 0.0 4.8 0.00 0.00 0.00 58 1008.2
20260509210437 32 205 0.0 3.2 0.00 0.00 0.00 57 1008.3
20260509205932 32 197 8.0 11.3 0.00 0.00 0.00 59 1008.4
20260509205427 32 218 0.0 6.4 0.00 0.00 0.00 60 1008.3
20260509204923 32 216 0.0 3.2 0.00 0.00 0.00 61 1008.5
20260509204419 32 252 3.2 3.2 0.00 0.00 0.00 63 1008.4
20260509203916 31 217 4.8 4.8 0.00 0.00 0.00 63 1008.4
20260509203412 31 228 4.8 4.8 0.00 0.00 0.00 63 1008.4
20260509202910 31 216 3.2 3.2 0.00 0.00 0.00 64 1008.4
20260509202405 31 224 1.6 4.8 0.00 0.00 0.00 63 1008.5
20260509201901 31 281 4.8 6.4 0.00 0.00 0.00 63 1008.7
20260509201356 31 209 0.0 4.8 0.00 0.00 0.00 61 1008.9
20260509200854 31 189 1.6 9.7 0.00 0.00 0.00 60 1008.9
20260509200348 31 231 4.8 4.8 0.00 0.00 0.00 62 1008.9
20260509195845 31 208 1.6 3.2 0.00 0.00 0.00 64 1008.9
20260509195345 31 257 4.8 6.4 0.00 0.00 0.00 65 1008.9
20260509194845 31 308 4.8 4.8 0.00 0.00 0.00 66 1009.3
20260509194341 31 221 3.2 3.2 0.00 0.00 0.00 63 1009.0
20260509193838 31 268 6.4 12.9 0.00 0.00 0.00 65 1009.4
20260509193338 31 228 3.2 6.4 0.00 0.00 0.00 65 1009.3
20260509192834 30 222 0.0 4.8 0.00 0.00 0.00 65 1009.2
20260509192330 30 232 4.8 4.8 0.00 0.00 0.00 67 1009.2
20260509191826 30 239 3.2 4.8 0.00 0.00 0.00 66 1009.3
20260509191322 30 209 0.0 1.6 0.00 0.00 0.00 65 1009.2
20260509190818 30 239 6.4 9.7 0.00 0.00 0.00 67 1009.0
20260509190315 30 165 1.6 4.8 0.00 0.00 0.00 67 1008.8
20260509185812 30 150 6.4 12.9 0.00 0.00 0.00 65 1008.9
20260509185308 30 160 3.2 4.8 0.00 0.00 0.00 64 1009.1
20260509184806 30 208 1.6 4.8 0.00 0.00 0.00 65 1009.2
20260509184303 30 173 3.2 3.2 0.00 0.00 0.00 66 1009.1
20260509183800 30 330 1.6 4.8 0.00 0.00 0.00 66 1009.6
20260509183255 30 228 3.2 4.8 0.00 0.00 0.00 67 1009.6
20260509182750 30 225 0.0 1.6 0.00 0.00 0.00 67 1009.6
20260509182248 30 251 4.8 4.8 0.00 0.00 0.00 69 1009.8
20260509181745 30 226 3.2 6.4 0.00 0.00 0.00 68 1009.7
20260509181243 30 258 3.2 11.3 0.00 0.00 0.00 70 1009.9
20260509180740 29 294 3.2 4.8 0.00 0.00 0.00 71 1010.0
20260509180236 28 3 3.2 6.4 0.00 0.00 0.00 73 1009.9
20260509175732 28 351 6.4 11.3 0.00 0.00 0.00 73 1010.1
20260509175229 28 275 6.4 11.3 0.00 0.00 0.00 74 1010.1
20260509174725 28 245 4.8 9.7 0.00 0.00 0.00 76 1010.1
20260509174220 28 275 6.4 12.9 0.00 0.00 0.00 76 1010.4
20260509173717 28 258 4.8 6.4 0.00 0.00 0.00 77 1010.3
20260509173213 28 280 4.8 9.7 0.00 0.00 0.00 77 1010.4
20260509172708 28 316 8.0 9.7 0.00 0.00 0.00 77 1010.4
20260509172205 28 185 0.0 1.6 0.00 0.00 0.00 78 1010.4
20260509171701 28 188 0.0 3.2 0.00 0.00 0.00 80 1010.4
20260509171157 27 197 1.6 3.2 0.00 0.00 0.00 84 1010.8
20260509170654 27 213 4.8 4.8 0.00 0.00 0.00 86 1010.7
20260509170150 26 155 0.0 4.8 0.00 0.00 0.00 89 1010.6
20260509165648 26 182 3.2 4.8 0.00 0.00 0.00 92 1010.8
20260509165144 26 162 1.6 4.8 0.00 0.00 0.00 93 1010.7
20260509164640 26 180 4.8 6.4 0.00 0.00 0.00 94 1010.6
20260509164136 26 164 3.2 4.8 0.00 0.00 0.00 95 1010.7
20260509163634 25 185 1.6 6.4 0.00 0.00 0.00 96 1010.8
20260509163129 25 173 6.4 9.7 0.00 0.00 0.00 95 1010.6
20260509162627 25 123 6.4 11.3 0.00 0.00 0.00 96 1010.5
20260509162123 25 141 9.7 14.5 0.00 0.00 0.00 96 1010.4
20260509161619 25 149 8.0 14.5 0.00 0.00 0.00 95 1010.5
20260509161114 25 120 9.7 12.9 0.00 0.00 0.00 96 1010.6
20260509160611 25 125 9.7 17.7 0.00 0.00 0.00 96 1010.6
20260509160106 25 125 9.7 17.7 0.00 0.00 0.00 96 1010.3
20260509155602 25 145 14.5 16.1 0.00 0.00 0.00 96 1010.5
20260509155058 25 160 9.7 14.5 0.00 0.00 0.00 97 1010.7
20260509154554 25 146 8.0 11.3 0.00 0.00 0.00 97 1010.7
20260509154052 25 93 6.4 6.4 0.00 0.00 0.00 97 1010.4
20260509153549 25 153 4.8 14.5 0.00 0.00 0.00 97 1010.5
20260509153046 25 131 8.0 11.3 0.00 0.00 0.00 97 1010.3
20260509152542 24 100 9.7 14.5 0.00 0.00 0.00 97 1010.3
20260509152040 24 123 8.0 14.5 0.00 0.00 0.00 97 1010.3
20260509151535 24 139 8.0 11.3 0.00 0.00 0.00 97 1010.3
20260509151033 24 165 4.8 6.4 0.00 0.00 0.00 98 1010.3
20260509150530 24 134 6.4 9.7 0.00 0.00 0.00 97 1010.1
20260509150029 24 126 4.8 6.4 0.00 0.00 0.00 98 1010.2
20260509145524 24 151 9.7 11.3 0.00 0.00 0.00 98 1010.0
20260509145019 23 83 9.7 17.7 0.00 0.00 0.00 98 1009.9
20260509144517 23 111 9.7 12.9 0.00 0.00 0.00 98 1009.9
20260509144014 23 116 12.9 16.1 0.00 0.00 0.00 98 1010.2
20260509143510 23 116 4.8 12.9 0.00 0.00 0.00 98 1010.3
20260509143009 23 137 6.4 11.3 0.00 0.00 0.00 98 1010.7
20260509142504 23 134 6.4 6.4 0.00 0.00 0.00 98 1010.8
20260509141959 23 156 4.8 6.4 0.00 0.00 0.00 98 1011.2
20260509141456 23 138 4.8 6.4 0.00 0.00 0.00 98 1010.8
20260509140953 23 154 1.6 9.7 0.00 0.00 0.00 98 1010.5
20260509140449 23 66 4.8 6.4 0.00 0.00 0.00 98 1010.1
20260509135948 23 150 3.2 6.4 0.00 0.00 0.00 98 1010.2
20260509135445 23 135 0.0 0.0 0.00 0.00 0.00 98 1010.1
20260509134942 23 93 0.0 3.2 0.00 0.00 0.00 98 1010.3
20260509134439 23 343 4.8 6.4 0.00 0.00 0.00 98 1010.4
20260509133937 23 0 6.4 11.3 0.00 0.00 0.00 98 1010.4
20260509133433 23 35 8.0 11.3 0.00 0.00 0.00 98 1010.4
20260509132931 23 327 8.0 11.3 0.00 0.00 0.00 98 1010.7
20260509132429 23 18 4.8 9.7 0.00 0.00 0.00 98 1010.6
20260509131926 23 267 3.2 4.8 0.00 0.00 0.00 98 1010.7
20260509131423 23 230 1.6 1.6 0.00 0.00 0.00 98 1010.3
20260509130920 23 103 6.4 11.3 0.00 0.00 0.00 98 1009.8
20260509130415 23 121 3.2 3.2 0.00 0.00 0.00 98 1010.3
20260509125912 23 174 0.0 0.0 0.00 0.00 0.00 98 1010.9
20260509125409 23 162 1.6 3.2 0.00 0.00 0.00 98 1010.3
20260509124905 23 164 3.2 4.8 0.00 0.00 0.00 98 1010.8
20260509124402 23 155 3.2 4.8 0.00 0.00 0.00 98 1010.8
20260509123900 23 188 3.2 4.8 0.00 0.00 0.00 98 1011.0
20260509123357 23 181 1.6 3.2 0.00 0.00 0.00 98 1011.2
20260509122852 22 183 0.0 0.0 0.00 0.00 0.00 98 1011.3
20260509122349 22 167 0.0 0.0 0.00 0.00 0.00 98 1011.3
20260509121846 22 180 0.0 1.6 0.00 0.00 0.00 97 1011.6
20260509121343 22 192 1.6 3.2 0.00 0.00 0.00 98 1011.7
20260509120841 22 191 0.0 0.0 0.00 0.00 0.00 98 1011.3
20260509120339 22 174 0.0 0.0 0.00 0.00 0.00 97 1011.0
20260509115837 22 167 0.0 0.0 0.00 0.00 0.00 97 1010.9
20260509115334 22 168 0.0 0.0 0.00 0.00 0.00 97 1010.5
20260509114832 22 167 0.0 0.0 0.00 0.00 0.00 97 1010.5
20260509114330 22 168 0.0 0.0 0.00 0.00 0.00 97 1010.2
20260509113829 22 157 0.0 0.0 0.00 0.00 0.00 97 1010.3
20260509113325 22 157 0.0 0.0 0.00 0.00 0.00 97 1010.1
20260509112822 22 157 0.0 0.0 0.00 0.00 0.00 97 1010.1
20260509112320 22 157 0.0 0.0 0.00 0.00 0.00 97 1010.1
20260509111816 22 115 0.0 0.0 0.00 0.00 0.00 97 1010.2
20260509111313 23 150 0.0 0.0 0.00 0.00 0.00 97 1010.1
20260509110811 23 155 0.0 0.0 0.00 0.00 0.00 97 1010.1
20260509110307 23 155 0.0 0.0 0.00 0.00 0.00 97 1010.4
20260509105806 23 163 0.0 0.0 0.00 0.00 0.00 97 1010.3